MOLNIYA 2-14

Last updated on Jan. 25, 2020, 4:43 a.m. UTC

1 08195U 75081A   20023.78035551 -.00001122  00000-0  11309-3 0  9999
2 08195  62.9747 300.3408 7356370 292.0503   8.9266  2.02109980325215
UTC
Height (km)
Latitude
Longitude
Inclination
Orbital Period
UTC large
Height (km)
Speed (km/s)
/
Latitude / Longitude
Inclination (degrees)
Orbital Period (minutes)
Azimuth
Elevation
Range (km)
Doppler Factor
iOS Compass Heading
iOS Angle

Next 30 passes for location: Hong Kong

Rise time Rise Azimuth (degrees) Set time Set Azimuth (degrees) Duration Max altitude (degrees)

No matching passes for this satellites